Weather History for KMHV - May, 2013

Change the Weather History Date:

Friday, May 3, 2013

  Actual Average Record
Temperature  
Mean Temperature 68 °F -  
Max Temperature 86 °F 78 °F 93 °F (2004)
Min Temperature 51 °F 51 °F 39 °F (1971)
Cooling Degree Days 4    
Growing Degree Days 18 (Base 50)    
Moisture  
Dew Point 6 °F    
Average Humidity 10    
Maximum Humidity 19    
Minimum Humidity 4    
Precipitation  
Precipitation 0.00 in - - ()
Sea Level Pressure  
Sea Level Pressure 30.02 in    
Wind  
Wind Speed 9 mph (WNW)    
Max Wind Speed 20 mph    
Max Gust Speed 29 mph    
Visibility 10 miles    
Events      
Averages and records for this station are not official NWS values.
T = Trace of Precipitation, MM = Missing Value Source: NWS Daily Summary

Daily Weather History Graph

Daily Weather History Graph

Search for Another Location

Airport or City:

Trip Planner

Search our weather history database for the weather conditions in past years. The results will help you decide how hot, cold, wet, or windy it might be!

Date:

Astronomy

May. 03, 2013 Rise Set
Actual Time 5:59 AM PDT 7:40 PM PDT
Civil Twilight 5:32 AM PDT 8:07 PM PDT
Nautical Twilight 4:59 AM PDT 8:40 PM PDT
Astronomical Twilight 4:24 AM PDT 9:15 PM PDT
Moon 2:12 AM PDT (5/3) 1:53 PM PDT (5/3)
Length of Visible Light 14h 35m
Length of Day
13h 40m
Waning Crescent, 36% of the Moon is Illuminated
May 3
Waning Crescent
May 9
New
May 17
First Quarter
May 24
Full
May 31
Last Quarter

Hourly Weather History & Observations

Time (PDT) Temp. Dew Point Humidity Pressure Visibility Wind Dir Wind Speed Gust Speed Precip Events Conditions
12:15 AM 55.4 °F -4.0 °F 9% 30.19 in 10.0 mi NW 9.2 mph - N/A   Clear
12:35 AM 55.4 °F -4.0 °F 9% 30.19 in 10.0 mi NW 10.4 mph - N/A   Clear
12:55 AM 55.4 °F -4.0 °F 9% 30.18 in 10.0 mi NW 10.4 mph - N/A   Clear
1:15 AM 55.4 °F -4.0 °F 9% 30.18 in 10.0 mi NW 10.4 mph - N/A   Clear
1:35 AM 55.4 °F -4.0 °F 9% 30.17 in 10.0 mi NW 10.4 mph - N/A   Clear
1:55 AM 53.6 °F -4.0 °F 9% 30.16 in 10.0 mi NW 10.4 mph - N/A   Clear
2:15 AM 53.6 °F -4.0 °F 9% 30.16 in 10.0 mi NW 10.4 mph - N/A   Clear
2:35 AM 53.6 °F -4.0 °F 9% 30.15 in 10.0 mi NW 10.4 mph - N/A   Clear
2:55 AM 53.6 °F -4.0 °F 9% 30.14 in 10.0 mi NW 10.4 mph - N/A   Clear
3:15 AM 53.6 °F -4.0 °F 9% 30.14 in 10.0 mi NW 11.5 mph - N/A   Clear
3:35 AM 53.6 °F -4.0 °F 9% 30.13 in 10.0 mi NW 11.5 mph - N/A   Clear
3:55 AM 53.6 °F -4.0 °F 9% 30.13 in 10.0 mi NW 11.5 mph - N/A   Clear
4:15 AM 53.6 °F -4.0 °F 9% 30.13 in 10.0 mi NW 10.4 mph - N/A   Clear
4:35 AM 53.6 °F -4.0 °F 9% 30.12 in 10.0 mi NW 10.4 mph - N/A   Clear
4:55 AM 53.6 °F -4.0 °F 9% 30.12 in 10.0 mi WNW 6.9 mph - N/A   Clear
5:15 AM 53.6 °F -4.0 °F 9% 30.12 in 10.0 mi NW 6.9 mph - N/A   Clear
5:35 AM 51.8 °F -4.0 °F 10% 30.12 in 10.0 mi NNW 5.8 mph - N/A   Clear
5:55 AM 51.8 °F -4.0 °F 10% 30.12 in 10.0 mi NNW 8.1 mph - N/A   Clear
6:35 AM 53.6 °F -4.0 °F 9% 30.11 in 10.0 mi Calm Calm - N/A   Clear
6:55 AM 55.4 °F -2.2 °F 9% 30.11 in 10.0 mi Calm Calm - N/A   Clear
7:15 AM 59.0 °F -2.2 °F 8% 30.11 in 9.0 mi Calm Calm - N/A   Clear
7:30 AM 59.0 °F -0.4 °F 9% 30.11 in 10.0 mi Calm Calm - N/A   Clear
7:45 AM 60.8 °F -0.4 °F 8% 30.11 in 10.0 mi Calm Calm - N/A   Clear
8:10 AM 62.6 °F 1.4 °F 9% 30.11 in 10.0 mi Calm Calm - N/A   Clear
8:25 AM 64.4 °F -0.4 °F 7% 30.11 in 10.0 mi Calm Calm - N/A   Clear
8:35 AM 66.2 °F -0.4 °F 7% 30.10 in 10.0 mi Calm Calm - N/A   Clear
9:10 AM 69.8 °F -0.4 °F 6% 30.10 in 10.0 mi East 4.6 mph - N/A   Clear
9:30 AM 71.6 °F -0.4 °F 6% 30.10 in 10.0 mi East 5.8 mph - N/A   Clear
9:55 AM 73.4 °F -0.4 °F 5% 30.09 in 10.0 mi NE 6.9 mph - N/A   Clear
10:00 AM 75.2 °F -0.4 °F 5% 30.09 in 10.0 mi ENE 6.9 mph - N/A   Clear
10:35 AM 75.2 °F -0.4 °F 5% 30.08 in 10.0 mi East 6.9 mph - N/A   Clear
10:50 AM 75.2 °F -0.4 °F 5% 30.09 in 10.0 mi ENE 5.8 mph - N/A   Clear
11:10 AM 77.0 °F 1.4 °F 5% 30.08 in 10.0 mi East 4.6 mph - N/A   Clear
2:30 PM 80.6 °F 1.4 °F 5% 29.98 in 10.0 mi South 5.8 mph - N/A   Clear
2:55 PM 82.4 °F 1.4 °F 4% 29.97 in 10.0 mi Calm Calm - N/A   Clear
3:05 PM 82.4 °F 3.2 °F 5% 29.96 in 10.0 mi SE 8.1 mph - N/A   Clear
3:35 PM 82.4 °F -0.4 °F 4% 29.94 in 10.0 mi South 5.8 mph - N/A   Clear
3:55 PM 84.2 °F 1.4 °F 4% 29.92 in 10.0 mi SSE 8.1 mph - N/A   Clear
4:15 PM 84.2 °F 1.4 °F 4% 29.92 in 10.0 mi Calm Calm - N/A   Clear
4:20 PM 84.2 °F 1.4 °F 4% 29.91 in 10.0 mi SSE 6.9 mph - N/A   Clear
4:45 PM 84.2 °F -0.4 °F 4% 29.90 in 10.0 mi South 6.9 mph - N/A   Clear
5:15 PM 86.0 °F 1.4 °F 4% 29.89 in 10.0 mi SSW 6.9 mph - N/A   Clear
5:30 PM 84.2 °F 3.2 °F 5% 29.88 in 10.0 mi South 10.4 mph - N/A   Clear
5:55 PM 84.2 °F 17.6 °F 8% 29.88 in 10.0 mi WNW 12.7 mph 17.3 mph N/A   Clear
6:15 PM 84.2 °F 17.6 °F 8% 29.88 in 10.0 mi WNW 16.1 mph 19.6 mph N/A   Clear
6:35 PM 82.4 °F 17.6 °F 9% 29.88 in 10.0 mi West 13.8 mph 19.6 mph N/A   Clear
6:55 PM 80.6 °F 19.4 °F 10% 29.87 in 10.0 mi WNW 17.3 mph 24.2 mph N/A   Clear
7:15 PM 80.6 °F 19.4 °F 10% 29.87 in 10.0 mi WNW 17.3 mph 23.0 mph N/A   Clear
7:35 PM 77.0 °F 21.2 °F 12% 29.87 in 10.0 mi WNW 17.3 mph 21.9 mph N/A   Clear
7:55 PM 77.0 °F 23.0 °F 13% 29.88 in 10.0 mi WNW 15.0 mph - N/A   Clear
8:15 PM 75.2 °F 24.8 °F 15% 29.88 in 10.0 mi West 12.7 mph 28.8 mph N/A   Clear
8:35 PM 75.2 °F 26.6 °F 17% 29.88 in 10.0 mi West 17.3 mph 25.3 mph N/A   Clear
8:55 PM 75.2 °F 26.6 °F 17% 29.88 in 10.0 mi West 18.4 mph 24.2 mph N/A   Clear
9:15 PM 73.4 °F 26.6 °F 18% 29.89 in 10.0 mi West 13.8 mph 19.6 mph N/A   Clear
9:35 PM 73.4 °F 26.6 °F 18% 29.89 in 10.0 mi SW 8.1 mph - N/A   Clear
9:55 PM 71.6 °F 26.6 °F 19% 29.89 in 10.0 mi SW 11.5 mph - N/A   Clear
10:15 PM 71.6 °F 26.6 °F 19% 29.89 in 10.0 mi SSW 13.8 mph 20.7 mph N/A   Clear
10:35 PM 71.6 °F 26.6 °F 19% 29.88 in 10.0 mi SW 16.1 mph 27.6 mph N/A   Clear
10:55 PM 71.6 °F 26.6 °F 19% 29.88 in 10.0 mi WSW 12.7 mph 16.1 mph N/A   Clear
11:15 PM 71.6 °F 26.6 °F 19% 29.87 in 10.0 mi WSW 10.4 mph 20.7 mph N/A   Clear
11:35 PM 71.6 °F 26.6 °F 19% 29.86 in 10.0 mi West 19.6 mph 24.2 mph N/A   Clear
11:55 PM 71.6 °F 26.6 °F 19% 29.86 in 10.0 mi West 16.1 mph 25.3 mph N/A   Clear